Weather History for BGMQ - September, 2013

Change the Weather History Date:

Sunday, September 29, 2013

  Actual Average Record
Temperature  
Mean Temperature 38 °F -  
Max Temperature 39 °F - - ()
Min Temperature 37 °F - - ()
Degree Days  
Heating Degree Days 27    
Moisture  
Dew Point 36 °F    
Average Humidity 93    
Maximum Humidity 100    
Minimum Humidity 87    
Precipitation  
Precipitation 0.00 in - - ()
Sea Level Pressure  
Sea Level Pressure 29.68 in    
Wind  
Wind Speed 11 mph ()    
Max Wind Speed 21 mph    
Max Gust Speed -    
Visibility 5.6 miles    
Events Rain , Snow    
T = Trace of Precipitation, MM = Missing Value Source: Averaged Metar Reports

Daily Weather History Graph

Daily Weather History Graph

Search for Another Location

Airport or City:

Trip Planner

Search our weather history database for the weather conditions in past years. The results will help you decide how hot, cold, wet, or windy it might be!

Date:

Astronomy

Sep. 29, 2013 Rise Set
Actual Time 7:36 AM WGST 7:06 PM WGST
Civil Twilight 6:46 AM WGST 7:55 PM WGST
Nautical Twilight 5:46 AM WGST 8:54 PM WGST
Astronomical Twilight 4:40 AM WGST 10:00 PM WGST
Moon 12:21 AM WGST (9/29) 5:33 PM WGST (9/29)
Length of Visible Light 13h 09m
Length of Day
11h 29m
Waning Crescent, 28% of the Moon is Illuminated
Sep 29
Waning Crescent
Oct 4
New
Oct 11
First Quarter
Oct 18
Full
Oct 26
Last Quarter

Hourly Weather History & Observations

Time (WGST) Temp. Windchill Dew Point Humidity Pressure Visibility Wind Dir Wind Speed Gust Speed Precip Events Conditions
12:20 AM 37.4 °F 32.1 °F 33.8 °F 87% 29.68 in 6.2 mi ESE 6.9 mph - N/A   Mostly Cloudy
12:50 AM 37.4 °F 32.1 °F 33.8 °F 87% 29.68 in 6.2 mi ESE 6.9 mph - N/A   Partly Cloudy
1:20 AM 37.4 °F 31.4 °F 33.8 °F 87% 29.68 in 6.2 mi ESE 8.1 mph - N/A   Unknown
1:50 AM 37.4 °F 30.3 °F 33.8 °F 87% 29.68 in 6.2 mi ESE 10.4 mph - N/A   Unknown
2:20 AM 37.4 °F 29.8 °F 33.8 °F 87% 29.68 in 6.2 mi ESE 11.5 mph - N/A   Partly Cloudy
2:50 AM 37.4 °F 29.3 °F 35.6 °F 93% 29.68 in 6.2 mi SE 12.7 mph - N/A   Mostly Cloudy
3:20 AM 37.4 °F 29.8 °F 35.6 °F 93% 29.68 in 6.2 mi ESE 11.5 mph - N/A   Partly Cloudy
3:50 AM 37.4 °F 29.3 °F 35.6 °F 93% 29.68 in 6.2 mi SE 12.7 mph - N/A   Mostly Cloudy
4:20 AM 37.4 °F 28.5 °F 35.6 °F 93% 29.68 in 6.2 mi SE 15.0 mph - N/A   Mostly Cloudy
4:50 AM 37.4 °F 28.5 °F 35.6 °F 93% 29.68 in 6.2 mi SE 15.0 mph - N/A   Mostly Cloudy
5:20 AM 37.4 °F 28.5 °F 35.6 °F 93% 29.68 in 6.2 mi SE 15.0 mph - N/A   Mostly Cloudy
5:50 AM 37.4 °F 28.9 °F 35.6 °F 93% 29.68 in 6.2 mi SSE 13.8 mph - N/A   Mostly Cloudy
6:20 AM 37.4 °F 29.3 °F 35.6 °F 93% 29.68 in 6.2 mi SSE 12.7 mph - N/A   Mostly Cloudy
6:50 AM 37.4 °F 29.8 °F 33.8 °F 87% 29.68 in 6.2 mi SE 11.5 mph - N/A   Mostly Cloudy
7:20 AM 37.4 °F 30.3 °F 33.8 °F 87% 29.68 in 6.2 mi ESE 10.4 mph - N/A   Overcast
7:50 AM 37.4 °F 29.8 °F 35.6 °F 93% 29.68 in 6.2 mi SE 11.5 mph - N/A   Mostly Cloudy
8:20 AM 37.4 °F 28.9 °F 35.6 °F 93% 29.68 in 6.2 mi SSE 13.8 mph - N/A   Mostly Cloudy
8:50 AM 37.4 °F 29.8 °F 35.6 °F 93% 29.68 in 6.2 mi SSE 11.5 mph - N/A   Mostly Cloudy
9:20 AM 37.4 °F 29.8 °F 35.6 °F 93% 29.68 in 6.2 mi SSE 11.5 mph - N/A   Mostly Cloudy
9:50 AM 37.4 °F 28.9 °F 35.6 °F 93% 29.68 in 6.2 mi SSE 13.8 mph - N/A   Overcast
10:20 AM 37.4 °F 28.5 °F 35.6 °F 93% 29.68 in 6.2 mi SSE 15.0 mph - N/A Rain Light Rain
10:50 AM 37.4 °F 28.5 °F 33.8 °F 87% 29.68 in 6.2 mi SE 15.0 mph - N/A Rain Light Rain
11:20 AM 37.4 °F 29.3 °F 33.8 °F 87% 29.68 in 6.2 mi SSE 12.7 mph - N/A   Drizzle
11:50 AM 37.4 °F 29.8 °F 33.8 °F 87% 29.68 in 6.2 mi SE 11.5 mph - N/A   Drizzle
12:20 PM 37.4 °F 29.3 °F 33.8 °F 87% 29.68 in 6.2 mi SSE 12.7 mph - N/A   Drizzle
12:50 PM 37.4 °F 28.9 °F 35.6 °F 93% 29.68 in 6.2 mi SSE 13.8 mph - N/A   Light Drizzle
1:20 PM 37.4 °F 29.3 °F 35.6 °F 93% 29.68 in 6.2 mi SSE 12.7 mph - N/A   Drizzle
1:50 PM 37.4 °F 27.8 °F 35.6 °F 93% 29.68 in 6.2 mi SSE 17.3 mph - N/A   Light Drizzle
2:20 PM 37.4 °F 27.5 °F 35.6 °F 93% 29.68 in 4.3 mi SE 18.4 mph - N/A   Drizzle
2:50 PM 37.4 °F 28.2 °F 35.6 °F 93% 29.68 in 5.0 mi SE 16.1 mph - N/A   Light Drizzle
3:20 PM 37.4 °F 28.5 °F 37.4 °F 100% 29.68 in 3.7 mi SE 15.0 mph - N/A   Light Drizzle
3:50 PM 37.4 °F 28.9 °F 37.4 °F 100% 29.68 in 6.2 mi ESE 13.8 mph - N/A Rain Light Rain
4:20 PM 37.4 °F 27.2 °F 35.6 °F 93% 29.68 in 6.2 mi SE 19.6 mph - N/A   Overcast
4:50 PM 37.4 °F 27.2 °F 35.6 °F 93% 29.68 in 5.6 mi SSE 19.6 mph - N/A   Overcast
5:20 PM 37.4 °F 26.9 °F 35.6 °F 93% 29.68 in 6.2 mi SE 20.7 mph - N/A   Overcast
5:50 PM 37.4 °F 27.2 °F 35.6 °F 93% 29.71 in 3.1 mi SE 19.6 mph - N/A   Overcast
6:20 PM 37.4 °F 27.5 °F 35.6 °F 93% 29.71 in - SE 18.4 mph - N/A Snow Light Snow
6:50 PM 37.4 °F 27.8 °F 35.6 °F 93% 29.71 in - SE 17.3 mph - N/A   Light Drizzle
7:20 PM 37.4 °F 28.9 °F 35.6 °F 93% 29.71 in 1.5 mi ESE 13.8 mph - N/A Snow Light Snow
7:50 PM 37.4 °F 29.8 °F 37.4 °F 100% 29.71 in 1.2 mi SE 11.5 mph - N/A Snow Light Snow Grains
8:20 PM 37.4 °F 30.3 °F 37.4 °F 100% 29.71 in 1.7 mi SE 10.4 mph - N/A Rain Light Rain
8:50 PM 37.4 °F 30.3 °F 37.4 °F 100% 29.71 in 1.8 mi ESE 10.4 mph - N/A Snow Light Snow Grains
9:20 PM 37.4 °F 30.8 °F 37.4 °F 100% 29.68 in - East 9.2 mph - N/A   Light Drizzle
9:50 PM 37.4 °F 31.4 °F 37.4 °F 100% 29.68 in 6.2 mi East 8.1 mph - N/A   Light Drizzle
10:20 PM 37.4 °F 30.3 °F 37.4 °F 100% 29.68 in 6.2 mi ENE 10.4 mph - N/A   Overcast
10:50 PM 37.4 °F 30.3 °F 37.4 °F 100% 29.68 in 6.2 mi East 10.4 mph - N/A   Overcast
11:20 PM 39.2 °F 32.5 °F 37.4 °F 93% 29.68 in 6.2 mi East 10.4 mph - N/A   Overcast
11:50 PM 39.2 °F 32.0 °F 37.4 °F 93% 29.68 in 6.2 mi ESE 11.5 mph - N/A   Overcast